Change the Weather History Date:

Tuesday, December 11, 2012

  Actual Average (KWRI) Record (KWRI)
Temperature  
Mean Temperature 48 °F -  
Max Temperature 60 °F 46 °F 59 °F (2006)
Min Temperature 35 °F 29 °F 15 °F (2013)
Degree Days  
Heating Degree Days 16    
Moisture  
Dew Point 38 °F    
Average Humidity 72    
Maximum Humidity 93    
Minimum Humidity 48    
Precipitation  
Precipitation 0.13 in - - ()
Sea Level Pressure  
Sea Level Pressure 29.91 in    
Wind  
Wind Speed 7 mph (NW)    
Max Wind Speed 15 mph    
Max Gust Speed 20 mph    
Visibility 10 miles    
Events Rain    
Averages and records for this station are not official NWS values.
T = Trace of Precipitation, MM = Missing Value Source: NWS Daily Summary

Daily Weather History Graph

Daily Weather History Graph

Search for Another Location

Airport or City:

Trip Planner

Search our weather history database for the weather conditions in past years. The results will help you decide how hot, cold, wet, or windy it might be!

Date:

Astronomy

Dec. 11, 2012 Rise Set
Actual Time 7:11 AM EST 4:34 PM EST
Civil Twilight 6:40 AM EST 5:04 PM EST
Nautical Twilight 6:06 AM EST 5:38 PM EST
Astronomical Twilight 5:34 AM EST 6:11 PM EST
Moon 5:03 AM EST (12/11) 3:11 PM EST (12/11)
Length of Visible Light 10h 24m
Length of Day
9h 23m
Waning Crescent, 4% of the Moon is Illuminated
Dec 11
Waning Crescent
Dec 13
New
Dec 20
First Quarter
Dec 28
Full
Jan 4
Last Quarter

Hourly Weather History & Observations

Time (EST) Temp. Windchill Dew Point Humidity Pressure Visibility Wind Dir Wind Speed Gust Speed Precip Events Conditions
12:54 AM 60.1 °F - 57.0 °F 90% 29.60 in 10.0 mi SW 6.9 mph - N/A   Scattered Clouds
1:05 AM 60.8 °F - 57.2 °F 88% 29.61 in 10.0 mi WSW 8.1 mph - N/A   Mostly Cloudy
1:54 AM 55.9 °F - 52.0 °F 87% 29.66 in 9.0 mi NW 15.0 mph - N/A   Overcast
2:06 AM 53.6 °F - 48.2 °F 82% 29.67 in 10.0 mi North 13.8 mph 19.6 mph 0.01 in   Overcast
2:46 AM 48.2 °F - 42.8 °F 82% 29.72 in 9.0 mi NNW 10.4 mph - 0.01 in Rain Light Rain
2:54 AM 46.9 °F - 43.0 °F 86% 29.71 in 8.0 mi North 12.7 mph - 0.01 in Rain Light Rain
3:32 AM 46.4 °F 42.4 °F 42.8 °F 87% 29.72 in 10.0 mi North 8.1 mph - 0.00 in   Overcast
3:54 AM 46.0 °F 42.5 °F 41.0 °F 83% 29.73 in 10.0 mi North 6.9 mph - 0.00 in Rain Light Rain
4:54 AM 45.0 °F - 41.0 °F 86% 29.77 in 5.0 mi Calm Calm - 0.07 in Rain Light Rain
5:54 AM 44.1 °F 41.5 °F 42.1 °F 93% 29.83 in 9.0 mi NW 4.6 mph - 0.04 in Rain Rain
6:54 AM 45.0 °F 42.6 °F 42.1 °F 90% 29.85 in 10.0 mi NW 4.6 mph - 0.01 in   Overcast
7:54 AM 44.1 °F 40.8 °F 39.0 °F 82% 29.87 in 10.0 mi NNW 5.8 mph - N/A   Overcast
8:54 AM 45.0 °F 40.1 °F 39.0 °F 80% 29.89 in 10.0 mi NNW 9.2 mph - N/A   Mostly Cloudy
9:54 AM 46.0 °F 41.9 °F 37.0 °F 71% 29.93 in 10.0 mi NNW 8.1 mph - N/A   Overcast
10:54 AM 46.9 °F - 36.0 °F 66% 29.96 in 10.0 mi NW 4.6 mph - N/A   Overcast
11:54 AM 48.0 °F - 37.0 °F 66% 29.95 in 10.0 mi WNW 5.8 mph - N/A   Overcast
12:54 PM 48.0 °F - 36.0 °F 63% 29.96 in 10.0 mi North 8.1 mph - N/A   Overcast
1:54 PM 48.0 °F - 34.0 °F 58% 29.97 in 10.0 mi WNW 5.8 mph - N/A   Overcast
2:54 PM 48.9 °F - 33.1 °F 54% 29.99 in 10.0 mi WNW 6.9 mph - N/A   Overcast
3:54 PM 48.0 °F - 32.0 °F 54% 30.01 in 10.0 mi West 3.5 mph - N/A   Clear
4:54 PM 46.9 °F - 32.0 °F 56% 30.05 in 10.0 mi Calm Calm - N/A   Overcast
5:54 PM 46.9 °F - 28.0 °F 48% 30.08 in 10.0 mi WNW 4.6 mph - N/A   Overcast
6:54 PM 45.0 °F 42.6 °F 28.0 °F 52% 30.12 in 10.0 mi WNW 4.6 mph - N/A   Scattered Clouds
7:54 PM 43.0 °F 40.3 °F 27.0 °F 53% 30.14 in 10.0 mi NW 4.6 mph - N/A   Clear
8:54 PM 42.1 °F 39.2 °F 27.0 °F 55% 30.17 in 10.0 mi NW 4.6 mph - N/A   Partly Cloudy
9:54 PM 41.0 °F - 28.0 °F 60% 30.19 in 10.0 mi Calm Calm - N/A   Clear
10:54 PM 37.0 °F - 28.9 °F 73% 30.20 in 10.0 mi Calm Calm - N/A   Clear
11:54 PM 35.1 °F - 30.0 °F 82% 30.22 in 10.0 mi Calm Calm - N/A   Clear